Content
SEND FEEDBACK

Daily
Averages
Monthly
Summary
United States of America

LAKE PLACID, NEW YORK


Home > North America > United States > New York
Elevation: 1984 feet     Latitude: 44 15N     Longitude: 073 59W

WEATHER
 
SELECT A DAY
Number of Records: 224,790;   Date Range: 1/1/95 - 7/26/14
 
SHARE

PRINT THIS DATA

[ ← Previous Day ]
WEATHER ALMANAC - SEPTEMBER 8, 2013
[ Next Day → ]
[ °C ]   °F
Weather ElementAverageHighLow
Temperature50.4 °F57 °F (4:51 am)33.1 °F (11:51 pm)
Dewpoint44.1 °F55.9 °F (3:51 am)32 °F (11:51 pm)
Humidity81.3 %100 % (12:38 am)45 % (3:51 pm)
Barometer29.95 in30.15 in (11:51 pm)29.81 in (3:51 am)
Wind Speed4.7 mph11.5 mph (5:13 am)
Wind Gust25.3 mph (5:13 am)
Weather ElementAverage
Visibility7.9 mi
Wind DirectionSE (134.2 °)

Weather ElementTotal
Precipitation0.09 in
Heating Degree Days20 (Base 65)
Averaged from 36 records on September 8, 2013
WEATHER CONDITIONS BREAKOUT
WIND DIRECTION BREAKOUT
WEATHER BY HOUR - SEPTEMBER 8, 2013
[ °C ]   °F
Local TimeTemperatureDewpointHumidityBarometerVisibilityWind DirectionWind SpeedGust SpeedPrecipitationEventsConditions
12:38 AM55.4 °F55.4 °F100 %29.86 in2.5 miCalmOvercast
12:51 AM55.0 °F54.0 °F96 %29.85 in2.0 miCalmOvercast
1:08 AM55.4 °F55.4 °F100 %29.85 in1.8 miSSW (200°)3.5 mphOvercast
1:51 AM55.0 °F55.0 °F100 %29.84 in2.0 miCalm0.01 inOvercast
2:23 AM55.4 °F55.4 °F100 %29.84 in1.5 miSW (220°)4.6 mphOvercast
2:51 AM55.9 °F55.0 °F97 %29.83 in1.0 miSW (230°)5.8 mphOvercast
3:32 AM55.4 °F55.4 °F100 %29.82 in2.5 miSW (230°)5.8 mph0.01 inOvercast
3:51 AM55.9 °F55.9 °F100 %29.81 in5.0 miSW (230°)8.1 mph0.01 inOvercast
4:51 AM57.0 °F55.9 °F96 %29.83 in4.0 miVariable4.6 mph0.02 inRainLight Rain
5:13 AM51.8 °F48.2 °F88 %29.86 in10.0 miNorth (350°)11.5 mph25.3 mph0.00 inOvercast
5:41 AM48.2 °F46.4 °F93 %29.88 in7.0 miNorth (360°)6.9 mph18.4 mph0.01 inRainLight Rain
5:51 AM48.0 °F45.0 °F89 %29.88 in6.0 miNorth (10°)8.1 mph0.01 inRainLight Rain
6:51 AM46.9 °F46.0 °F97 %29.91 in10.0 miCalm0.02 inOvercast
7:06 AM48.2 °F46.4 °F93 %29.91 in10.0 miCalmOvercast
7:18 AM48.2 °F46.4 °F93 %29.91 in10.0 miCalmOvercast
7:43 AM50.0 °F46.4 °F87 %29.92 in10.0 miVariable4.6 mphMostly Cloudy
7:51 AM50.0 °F46.0 °F86 %29.93 in10.0 miNNW (340°)8.1 mphMostly Cloudy
8:34 AM48.2 °F44.6 °F87 %29.92 in10.0 miVariable4.6 mphScattered Clouds
8:51 AM48.9 °F45.0 °F86 %29.94 in10.0 miNNW (330°)6.9 mphClear
9:51 AM52.0 °F43.0 °F71 %29.95 in10.0 miNorth (10°)6.9 mphScattered Clouds
10:03 AM51.8 °F42.8 °F71 %29.95 in10.0 miVariable6.9 mphMostly Cloudy
10:36 AM53.6 °F39.2 °F58 %29.96 in10.0 miNorth (350°)8.1 mph17.3 mphScattered Clouds
10:51 AM52.0 °F39.0 °F61 %29.96 in10.0 miNW (310°)10.4 mph20.7 mphPartly Cloudy
11:51 AM52.0 °F37.9 °F59 %29.98 in10.0 miNW (320°)9.2 mph17.3 mphMostly Cloudy
12:51 PM54.0 °F37.9 °F55 %29.99 in10.0 miNW (320°)8.1 mphScattered Clouds
1:51 PM55.9 °F37.9 °F51 %29.99 in10.0 miVariable3.5 mph19.6 mphScattered Clouds
2:51 PM55.9 °F36.0 °F47 %29.99 in10.0 miVariable5.8 mph17.3 mphPartly Cloudy
3:51 PM55.9 °F35.1 °F45 %30.00 in10.0 miVariable5.8 mphClear
4:51 PM53.1 °F35.1 °F50 %30.02 in10.0 miNNW (340°)4.6 mphPartly Cloudy
5:51 PM54.0 °F37.0 °F53 %30.04 in10.0 miNNW (330°)6.9 mphMostly Cloudy
6:51 PM51.1 °F36.0 °F56 %30.07 in10.0 miNorth (350°)8.1 mphPartly Cloudy
7:51 PM43.0 °F37.9 °F82 %30.09 in10.0 miCalmClear
8:51 PM39.0 °F37.0 °F93 %30.11 in10.0 miCalmClear
9:51 PM36.0 °F34.0 °F93 %30.12 in10.0 miCalmClear
10:51 PM34.0 °F33.1 °F96 %30.14 in10.0 miCalmClear
11:51 PM33.1 °F32.0 °F96 %30.15 in10.0 miCalmClear
Hourly data recorded from KSLK, located miles away from Lake Placid, New York







STORIES FROM OUR PARTNERS